This demonstration page uses our WeatherBlox Daily Observations layout. Learn more.

Left ArrowRight Arrow

Hourly Observations for March 19, 2020

Temp ( °F °C ) Dew Point ( °F °C ) Humidity (%) Winds ( mph kmh ) Pressure ( in mb ) Visibility ( mi km ) Precip ( " mm )
1:36 pm 13:36 Cloudy 52 11 52 11 100 100 SE 10 17 30.07 1018 2 3 N/A
1:45 pm 13:45 Cloudy 54 12 54 12 100 100 SSE 9 15 30.06 1018 2 3 N/A
1:55 pm 13:55 Cloudy 54 12 54 12 100 100 ESE 10 17 30.02 1017 4 6 N/A
1:56 pm 13:56 Cloudy 54 12 54 12 100 100 ESE 10 17 30.02 1017 4 6 N/A
2:15 pm 14:15 Cloudy 54 12 54 12 100 100 ESE 10 17 30.00 1016 5 8 N/A
2:16 pm 14:16 Cloudy 54 12 54 12 100 100 SE 12 19 30.00 1016 5 8 N/A
2:35 pm 14:35 Cloudy 55 13 55 13 100 100 SE 10 17 29.99 1016 4 6 N/A
2:36 pm 14:36 Cloudy 55 13 55 13 100 100 SE 10 17 29.99 1016 4 6 N/A
2:55 pm 14:55 Cloudy 55 13 55 13 100 100 SE 14 22 29.97 1015 3 5 N/A
3:15 pm 15:15 Cloudy 57 14 57 14 100 100 S 12 19 29.97 1015 3 5 N/A
3:35 pm 15:35 Cloudy 57 14 57 14 100 100 SE 15 24 29.93 1013 5 8 N/A
3:55 pm 15:55 Cloudy 57 14 57 14 100 100 SE 15 24 29.91 1013 5 8 N/A
4:15 pm 16:15 Cloudy 59 15 59 15 100 100 SSE 10 17 29.90 1013 5 8 N/A
7:26 pm 19:26 undefined 61 16 61 16 100 100 S 14 22 29.84 1011 N/A N/A
7:35 pm 19:35 undefined 63 17 63 17 100 100 SSW 10 17 29.84 1010 5 8 N/A
7:55 pm 19:55 Cloudy 63 17 63 17 100 100 SSW 15 24 29.85 1011 7 11 N/A
7:56 pm 19:56 Cloudy 63 17 63 17 100 100 SSW 14 22 29.85 1011 7 11 N/A
8:15 pm 20:15 Cloudy 63 17 63 17 100 100 SW 12 19 29.87 1011 10 16 N/A
8:35 pm 20:35 undefined 63 17 63 17 100 100 SW 10 17 29.87 1011 10 16 N/A
8:55 pm 20:55 Cloudy 64 18 64 18 100 100 SSW 9 15 29.85 1011 10 16 N/A
9:15 pm 21:15 Cloudy 64 18 64 18 100 100 SSW 13 20 29.83 1010 10 16 N/A
9:35 pm 21:35 Cloudy 64 18 64 18 100 100 SSW 15 24 29.85 1011 10 16 N/A
9:36 pm 21:36 Cloudy 64 18 64 18 100 100 SSW 16 26 29.85 1011 10 16 N/A
9:55 pm 21:55 Mostly Cloudy 64 18 64 18 100 100 SSW 16 26 29.84 1011 10 16 N/A
10:15 pm 22:15 Mostly Cloudy 64 18 64 18 100 100 SSW 15 24 29.84 1011 10 16 N/A
10:16 pm 22:16 Mostly Cloudy 64 18 64 18 100 100 SSW 16 26 29.83 1010 10 16 N/A
10:35 pm 22:35 Mostly Cloudy 64 18 64 18 100 100 SSW 9 15 29.84 1011 10 16 N/A
10:55 pm 22:55 Cloudy 64 18 64 18 100 100 SW 15 24 29.85 1011 10 16 N/A
11:15 pm 23:15 Cloudy 64 18 64 18 100 100 S 22 35 29.84 1011 7 11 N/A
11:35 pm 23:35 Cloudy 64 18 64 18 100 100 SSW 24 39 29.85 1011 10 16 N/A
11:55 pm 23:55 Mostly Cloudy 63 17 63 17 100 100 SW 20 31 29.87 1011 10 16 N/A

Powered by AerisWeather